FW2927 Weather Reports


time (UTC)temp
F
wind
direction
speed
knots
gust
knots
rain 1hr
in
rain 24hr
in
rain mn
in
humidity
%
barometer
mb
20260506213008 59 330 0.0 3.5 0.00 0.55 0.45 58 1014.3
20260506211510 60 292 0.9 4.3 0.00 0.55 0.45 57 1014.6
20260506210010 60 277 0.0 3.5 0.00 0.55 0.45 53 1014.3
20260506204511 61 186 0.0 2.6 0.00 0.55 0.45 57 1014.6
20260506203010 60 244 0.0 3.5 0.00 0.55 0.45 56 1014.4
20260506201516 61 154 0.9 4.3 0.00 0.55 0.45 56 1014.2
20260506200011 60 313 0.0 4.3 0.00 0.55 0.45 56 1014.4
20260506194516 61 319 1.7 5.2 0.00 0.55 0.45 54 1014.6
20260506193010 61 81 0.9 4.3 0.00 0.55 0.45 55 1014.6
20260506191510 62 298 1.7 6.1 0.00 0.55 0.45 56 1014.1
20260506190009 61 307 1.7 6.1 0.00 0.55 0.45 54 1014.2
20260506184508 61 10 0.9 4.3 0.00 0.55 0.45 56 1014.4
20260506183007 61 302 0.9 4.3 0.00 0.55 0.45 61 1014.2
20260506181501 60 209 0.9 7.0 0.00 0.55 0.45 59 1014.1
20260506180106 60 227 0.0 4.3 0.00 0.55 0.45 60 1014.3
20260506174601 60 301 1.7 8.7 0.00 0.55 0.45 59 1014.1
20260506173059 59 360 1.7 7.0 0.00 0.55 0.45 60 1014.1
20260506171601 59 296 1.7 4.3 0.00 0.55 0.45 61 1014.6
20260506170105 58 57 0.9 7.8 0.00 0.55 0.45 66 1014.6
20260506164602 58 335 0.0 5.2 0.00 0.55 0.45 65 1014.8
20260506163112 57 331 1.7 7.8 0.00 0.55 0.45 62 1014.8
20260506161552 57 22 0.0 4.3 0.00 0.55 0.45 68 1014.8
20260506160051 56 294 0.9 4.3 0.00 0.55 0.45 67 1015.1
20260506154607 55 297 0.9 3.5 0.00 0.55 0.45 70 1014.6
20260506153055 54 307 1.7 5.2 0.00 0.55 0.45 71 1014.4
20260506151548 54 329 0.9 4.3 0.00 0.55 0.45 73 1014.3
20260506150047 53 285 0.9 4.3 0.00 0.55 0.45 73 1014.3
20260506144546 52 338 0.9 4.3 0.00 0.55 0.45 79 1014.3
20260506143059 51 296 1.7 4.3 0.00 0.55 0.45 79 1014.0
20260506141545 50 296 0.9 2.6 0.00 0.55 0.45 82 1014.3
20260506140042 49 319 0.0 4.3 0.00 0.55 0.45 85 1013.5
20260506134542 48 339 0.0 4.3 0.00 0.55 0.45 85 1013.4
20260506133041 47 337 0.0 2.6 0.00 0.55 0.45 86 1013.3
20260506131538 47 323 0.9 4.3 0.00 0.55 0.45 87 1013.2
20260506130036 46 306 0.0 4.3 0.00 0.55 0.45 88 1013.1
20260506124535 46 332 0.0 0.9 0.00 0.55 0.45 89 1012.9
20260506123035 46 332 0.0 2.6 0.00 0.55 0.45 89 1012.9
20260506121541 46 331 0.0 4.3 0.00 0.55 0.45 89 1012.8
20260506120036 46 317 0.9 3.5 0.00 0.55 0.45 90 1012.9
20260506114542 46 234 0.0 1.7 0.00 0.55 0.45 90 1012.7
20260506113033 45 325 0.9 3.5 0.00 0.55 0.45 90 1012.4
20260506111536 46 346 0.9 3.5 0.00 0.55 0.45 91 1011.9
20260506110030 46 329 0.9 2.6 0.00 0.55 0.45 91 1011.8
20260506104525 46 338 1.7 4.3 0.00 0.55 0.45 92 1011.2
20260506103024 47 333 0.9 4.3 0.00 0.55 0.45 92 1011.3
20260506101521 47 335 0.9 3.5 0.00 0.55 0.45 92 1010.3
20260506100019 47 335 0.9 2.6 0.01 0.55 0.45 93 1010.4
20260506094519 48 311 1.7 4.3 0.01 0.55 0.45 93 1010.2
20260506093016 48 300 0.0 4.3 0.01 0.55 0.45 93 1010.1
20260506091514 48 326 0.0 3.5 0.01 0.55 0.45 93 1010.0
20260506090012 48 323 0.9 2.6 0.01 0.55 0.45 93 1010.2
20260506084512 49 343 1.7 5.2 0.01 0.54 0.44 93 1009.9
20260506083008 49 325 1.7 3.5 0.02 0.54 0.44 93 1009.7
20260506081508 49 350 0.0 3.5 0.04 0.54 0.44 94 1009.1
20260506073109 50 311 1.7 9.6 0.08 0.52 0.42 93 1008.4
20260506071500 50 316 1.7 3.5 0.08 0.50 0.40 93 1008.0
20260506070106 51 300 1.7 5.2 0.08 0.48 0.38 93 1008.0
20260506044544 59 196 0.0 2.6 0.04 0.14 0.04 92 1007.3
20260506043035 59 288 0.9 3.5 0.01 0.10 0.00 92 1007.3
20260506040051 59 211 0.0 2.6 0.05 0.10 0.10 92 1006.7
20260506034529 60 223 0.0 2.6 0.05 0.10 0.10 91 1006.9
20260506033029 60 180 0.9 2.6 0.05 0.09 0.09 91 1007.3
20260506030026 60 119 0.9 4.3 0.02 0.06 0.06 91 1007.9
20260506024528 61 204 0.9 5.2 0.01 0.05 0.05 91 1008.0
20260506023025 61 191 2.6 6.1 0.00 0.04 0.04 91 1008.2
20260506020030 61 206 0.0 1.7 0.00 0.04 0.04 90 1008.0
20260506014533 61 206 0.0 0.0 0.00 0.04 0.04 90 1007.7
20260506013029 61 206 0.0 0.9 0.01 0.04 0.04 90 1007.3
20260506010028 61 206 0.0 0.9 0.02 0.04 0.04 89 1007.1
20260506004527 61 206 0.0 0.0 0.03 0.04 0.04 89 1007.1
20260506003024 61 206 0.0 0.0 0.02 0.03 0.03 89 1007.1
20260506000021 62 206 0.0 4.3 0.02 0.02 0.02 88 1007.1
20260505234518 62 218 0.0 1.7 0.01 0.01 0.01 88 1007.3
20260505233017 62 217 0.0 0.9 0.01 0.01 0.01 88 1007.3
20260505230028 63 217 0.0 0.9 0.00 0.00 0.00 87 1007.4
20260505224522 64 217 0.0 0.0 0.00 0.00 0.00 86 1007.8
20260505223021 64 217 0.0 2.6 0.00 0.00 0.00 87 1008.3
20260505220015 64 111 0.0 0.0 0.00 0.00 0.00 88 1007.5